TIMESTAMP,CO2_1_1_1,H2O_1_1_1,TAU_1_1_1,TAU_SSITC_TEST_1_1_1,H_1_1_1,H_SSITC_TEST_1_1_1,LE_1_1_1,LE_SSITC_TEST_1_1_1,FC_1_1_1,FC_SSITC_TEST_1_1_1,WD_0_0_1,WS_0_0_1,WS_MAX_0_0_1,U_SIGMA_0_0_1,V_SIGMA_0_0_1,W_SIGMA_0_0_1,USTAR_0_0_1,MO_LENGTH_0_0_1,ZL_0_0_1,FETCH_MAX_0_0_1,FETCH_70_0_0_1,FETCH_80_0_0_1,FETCH_90_0_0_1,PA_0_0_1,RH_0_0_1,TA_0_0_1,VPD_0_0_1,T_SONIC_0_0_1,T_SONIC_SIGMA_0_0_1
[yyyymmddHHMMSS],[mmolCO2 mol-1],[mmolH2O mol-1],[kg m-1 s-2],[#],[W m-2],[#],[W m-2],[#],[umolCO2 m-2 s-1],[#],[Decimal degrees],[m s-1],[m s-1],[m s-1],[m s-1],[m s-1],[m s-1],[m],[#],[m],[m],[m],[m],[kPa],[%],[deg C],[hPa],[deg C],[deg C]
20190902003000,392.75776767318735,13.761169538155842,0.17380787618790258,1,-11.731870389582182,0,3.9405317502896504,2,2.0339995235307322,1,204.87673898307048,1.8348155768977157,4.5703598994424617,0.71712177861386772,0.63538194948838111,0.47012166226201818,0.39258977470546397,430.92321166628705,4.40913821433083220E-002,108.40214515117414,198.19369442729729,237.18723285360835,296.93026987177586,94.060962244357640,71.770344827586214,15.924482758620684,5.0926259926532156,16.699252006530742,9.99454381661519092E-002
20190902010000,393.31356423107752,14.158578424982284,0.11761180880730254,0,-16.007789479366323,0,-5.1717342991025115,2,4.0084162814699749,0,201.89685175949879,1.9905237367626711,4.6094500455724265,0.65095619612924482,0.61507125069891500,0.45158723382336519,0.32286401486243149,175.66227443323498,0.10816209719077413,95.736443369470294,175.03675205194526,209.47428719591983,262.23695044611298,94.052713612413200,74.861333333333334,15.709000000000003,4.4729304131819099,16.536172114054409,8.75508019129331710E-002
20190902013000,393.15650342713553,14.688817041321434,0.15524263251002532,0,-18.333962058225261,0,-4.1665746200641900,0,4.5167592179232345,0,205.61228195877769,2.2735694941139886,5.5405890920493812,0.79316314624981576,0.70398095142203265,0.51481368541620931,0.37099072998432064,232.70698196011054,8.16477436128533740E-002,96.344134469378901,176.14780519571391,210.80393404207848,263.90151051586901,94.048346958302062,77.598333333333329,15.721666666666692,3.9891687153989710,16.607396000715198,9.23831610994345354E-002
20190902020000,393.36368367522118,15.147192635986338,0.25093741454687013,0,-15.410192390757162,0,2.1370306708344886,1,3.9129719233489944,0,218.33061693808335,2.9145120301190093,8.0310558194268840,1.0959838938273543,0.84193987755467570,0.63319017661439003,0.47179829038513249,569.50638171556409,3.33622249197014498E-002,98.953840718110797,180.91918054151418,216.51405170473416,271.04990024230261,94.056014536241321,79.375333333333330,15.849333333333334,3.7028538960661557,16.760506670633958,8.02068614040227085E-002
20190902023000,394.38222400703540,15.359906061599878,0.42185366071182895,0,-12.746748402696332,0,5.8048399235478225,0,3.8158065538043884,0,218.64355950919312,2.5378742689601279,7.4623057886513307,1.1580541539809979,0.93089353877800651,0.72080882075365083,0.61167208816021323,1500.4171074788021,1.26631454048976386E-002,109.80288632239805,200.75469603177783,240.25209768523501,300.76711695088113,94.056715012605565,80.846666666666664,15.780333333333317,3.4235533030916829,16.710001428483110,5.90849098211371770E-002
20190902030000,395.11687842161319,15.508936336278595,0.40970628631536699,0,-9.2356776606293831,0,7.9062858782815999,1,3.8252967350682074,0,230.42449237866504,2.9303559252610714,7.8603704253562894,1.2446865979466157,0.98721127928226382,0.69588972152981965,0.60263943249671093,1980.6406576334905,9.59285568877576468E-003,111.60113170734660,204.04246211641353,244.18671398136922,305.69278965508647,94.067691751736120,82.363333333333330,15.642666666666685,3.1247952948058471,16.588804557800302,5.61032087419416972E-002
20190902033000,394.43332380058268,15.670246597784301,0.40999751363116727,0,-7.7126864823505779,0,8.3590398133807895,1,3.5108804426144706,0,236.93499024151973,3.4825457695305211,8.7171848085631876,1.2461964076222098,0.94705954561313277,0.68460805525199409,0.60272662475179450,2372.8279682655161,8.00732301460883866E-003,113.08307175329995,206.75192116095232,247.42924445218640,309.75205303188648,94.067039353515625,83.976666666666659,15.501333333333321,2.8133516598476604,16.458867361280682,5.99343860335608547E-002
20190902040000,394.59227520479914,15.786366775690102,0.39143766373283578,0,-4.5377959908131835,0,3.5723361655506491,0,3.2095335496120030,0,244.30630503909870,2.5528092913418035,7.6069723527575039,1.0605935445638888,0.90063982497884421,0.69168975895528273,0.58876070359342170,3759.4495154706319,5.05393141251464766E-003,110.07200460217040,201.24673007807476,240.84093677140356,301.50427361257624,94.077433278523245,85.390000000000001,15.358000000000004,2.5417178008844736,16.341493295909061,4.22992136616232237E-002
20190902043000,395.34379635938870,15.922482875115270,0.29094229544892236,0,-0.28086763697595385,2,-6.7498298611057557,1,3.3365562517225951,0,253.39272334480518,3.1814760201221870,7.5006961515118817,1.2099749435168792,0.84991009366920678,0.63436375741973627,0.50750266415726242,38905.113626056256,4.88367677900186582E-004,104.74537856341820,191.50795883899377,229.18611491510444,286.91381965996283,94.086804662543415,86.593333333333334,15.275333333333322,2.3200232810780017,16.266364940219489,5.20272155526581362E-002
20190902050000,396.31892937553135,16.086184043379088,0.35144312372686998,0,-2.7217994497554554,0,1.3459176740217245,1,3.5323827712248805,0,251.63779593863913,3.1045895368890766,7.4790588184506150,1.1527217292013188,0.96802701205133146,0.68251216743337983,0.55769817506465891,5327.8054607889708,3.56619627721661879E-003,106.53344226588000,194.77710956076263,233.09845337631705,291.81160315843044,94.087311539226135,88.049999999999997,15.175000000000011,2.0546559804845677,16.183583424651545,4.33511304469516717E-002
20190902053000,397.97545010372960,16.173816647332853,0.24266365501107065,0,-3.3467565250903859,0,0.23767859114559911,2,1.9830356117799479,0,256.39512568363028,2.6610400988546989,6.3065875244367779,0.92921139208086900,0.72477348991038648,0.55367455012590472,0.46338044378633120,2485.4136866375220,7.64460262778419303E-003,108.59289508630411,198.54244614528642,237.60459958760970,297.45276349620718,94.086296780164943,88.876666666666665,15.114000000000033,1.9050332661937932,16.140475814819354,3.78493389054694734E-002
20190902060000,399.98848636942722,16.273152510768544,0.21162584893298275,0,-7.1616881808424422,0,0.84379202375723827,2,2.2558922767059144,0,254.70262647735444,2.6434875670963138,5.8034847531187825,0.95440765962918861,0.68988704430089531,0.53198117523955990,0.43268348048445815,945.62483699930340,2.00925348580009815E-002,106.13879182391163,194.05556268554170,232.23494605232096,290.73059445629394,94.088287603081596,89.829999999999998,15.043666666666638,1.7338969858679207,16.078560505337236,5.41772531904384930E-002
20190902063000,401.37717084062609,16.427066400278136,0.31517065208219469,0,-8.8131961920477160,0,-1.1303414122359077,2,3.6737624472835093,0,262.64580326587861,2.4563820848442974,6.0917809206203337,0.98075968865394725,0.68689947863528333,0.54609261723776326,0.52797381804724697,1396.1903036444241,1.36084600719579563E-002,121.87980898808736,222.83516240158750,266.67677650009745,333.84767916063043,94.090199856336810,91.106666666666669,14.971000000000004,1.5091600358425898,16.027032557169605,4.47929594799228170E-002
20190902070000,402.45934835315813,16.629603744932542,0.26546989088182688,0,-4.5311337550595487,0,-0.74294131390462537,2,2.9368022419942768,0,258.29760094940218,2.4098837649018763,5.8572739958205871,0.97038896268272778,0.73762174529566249,0.58375813563878498,0.48454967165586199,2099.4351431587852,9.05005332596882546E-003,107.87956478342822,197.23825084659785,236.04381091120658,295.49884128327244,94.101714812576063,92.233333333333334,14.972333333333324,1.3180827599189571,16.045059286838296,4.14561728847953198E-002
20190902073000,403.69449625640954,16.778307874159420,0.27930410813119788,0,-3.1636024423942581,0,-3.03965778546215967E-002,2,2.3061728285838181,0,266.21547354465400,2.6311225540911480,6.2455706801227375,1.0102383868855593,0.75221952993447327,0.59149994611075496,0.49706197811575642,3246.0385887289031,5.85328839465217108E-003,108.94807656256829,199.19183116321912,238.38174759882730,298.42566058651386,94.101045270616325,92.840000000000003,15.008666666666670,1.2179710807307993,16.091735945807613,4.06737917615930117E-002
20190902080000,404.81471436118352,16.934121824140153,0.24190141910336996,0,-2.2241362995437601,1,1.9773259666193519,2,3.4157976080227757,0,265.15046283540698,2.6213198195147145,7.5301357024852411,1.0677333203082662,0.79993365309905728,0.55023781614368628,0.46261876607415231,3722.1159155847990,5.10462339994449676E-003,108.99163026687100,199.27146122542601,238.47704444548731,298.54496093019696,94.090622657769103,93.730000000000004,15.002333333333354,1.0661404606464566,16.098669959174288,3.97210811870989805E-002
20190902083000,406.44054018881388,17.013512444634426,0.25123341468689320,0,-6.5543000373223474,0,-0.27462355271816152,2,2.6119022588130596,0,284.39960515776465,2.6197545379053091,6.8692439192505441,0.96418454244696683,0.83447673458392679,0.59803599735686208,0.47135157203145894,1336.0035228407012,1.42215193861172703E-002,103.50206314148357,189.23478171258162,226.46570247232819,283.50818609749092,94.094354790147577,94.946666666666673,14.875333333333344,0.85226029330264053,15.951141585456071,0.11052034513230907
20190902090000,407.18944578751149,16.980476026281497,0.33802863755193269,0,-11.395553959210272,0,0.95791175424620145,2,3.2446974273386164,0,295.48717285155237,3.1193639380899181,8.0528689685751491,1.1490150723190724,1.0222014206840864,0.68306929344800416,0.54650076849278606,1197.8995687969607,1.58610959507077230E-002,104.75040513563870,191.51714901615583,229.19711320996345,286.92758822002116,94.121137266614809,95.829999999999998,14.706000000000017,0.69564564911620663,15.781185729770186,5.65173184804519529E-002
20190902093000,407.04883039169010,16.748288817778963,0.30898051291520723,0,-8.0003326164053981,1,3.5028019541641386,1,3.2594053830114995,0,314.32922695253330,2.6087412688068814,7.4051543038378984,1.1556474274265556,0.92350054085320432,0.58815920115323173,0.52222756359995581,1488.9979502894885,1.27602593383732005E-002,113.85361270124316,208.16071576522336,249.11521178233630,311.86268406507281,94.138960687282989,95.836666666666673,14.494666666666660,0.68511867202607390,15.544859790802093,0.14168616926171299
20190902100000,405.88799817900144,16.524960536337364,0.19998360428147052,0,-8.3488667895890192,1,2.1848876258994911,2,3.4837598174518578,0,320.65841967305130,2.3280251715795228,5.9480716245516554,0.83972068428838242,0.67588728603762249,0.50916502363276606,0.41980403590992937,741.34585599618640,2.56290634746567450E-002,107.30138734660241,196.18115809184465,234.77874086902372,293.91512370913182,94.170976941189238,96.659999999999997,14.160333333333313,0.53786546741464236,15.196122084723584,5.95778072528025046E-002
20190902103000,406.17918229853257,16.319072158140433,0.18151163711944462,0,-13.671254160208669,1,-13.139480031631882,2,1.9802949200840050,1,321.30566952492876,2.4187423092235671,7.9074399556766446,0.99287851785964343,0.74823629006002945,0.52781334180815254,0.39975600255564098,390.95563099807157,4.85988651742778471E-002,100.25512979745957,183.29835200342910,219.36131229577623,274.61433263405451,94.189068092881953,96.693333333333328,13.964666666666687,0.52578274256821256,14.932421485900932,0.14596831446628294
20190902110000,406.17074649254653,15.828905719909800,0.31120814976840666,0,-9.4053057884105264,1,18.237982542934066,1,3.4357060240315120,0,338.16699742412629,2.5909171665636874,7.1555568339016862,1.1240765803465682,0.73404286464808866,0.54841550382934012,0.52300037727566695,1272.7623052684696,1.49281605224726097E-002,120.55041850415576,220.40461260961189,263.76802917018131,330.20627266809015,94.220513281901219,95.883333333333340,13.629999999999995,0.64049451756311560,14.528336010525209,0.12464223928861894
20190902113000,407.44359831181640,15.413460692631554,0.23962716482693214,0,-1.1225940971038655,2,13.569706034282010,1,2.3566187363817424,0,336.14674185024660,2.3614542001002072,6.7740698314471519,1.0458046464032866,0.68130489312631515,0.50369001372237465,0.45841994604898884,7182.6442796657038,2.64526534521410291E-003,116.12748805893148,212.31808513442678,254.09052111032017,318.09118095202626,94.262336963107643,96.266666666666666,13.167666666666662,0.56360608703159187,14.035086273193372,0.24483439841930124
20190902120000,406.76108078096490,14.382209550006149,0.31722500726773539,0,-14.623449905368936,1,-0.41219223685311640,2,0.66675019064216401,1,339.70401173298717,2.8928123523819029,8.2622882034381551,1.2296330132709792,0.68024431947353325,0.51081169818685301,0.52648170245262249,835.39037260689895,2.27438579890609227E-002,128.27820017789460,234.53346215876007,280.67665352198537,351.37386390619196,94.310216422743068,94.650000000000006,12.377000000000010,0.76689162791019272,13.143723197937106,0.16685840939840077
20190902123000,406.49148930634681,13.988923185763833,0.19833365933477770,0,1.4360689287792150,1,30.106287375741157,0,0.88505620630379167,1,350.98495872307035,2.2461788138888972,6.7355154400855977,1.0191064394173739,0.60194434307053579,0.43370056615561392,0.41602819478671271,-4198.1039420995439,-4.52585268541440006E-003,121.11588864830077,221.43847238056145,265.00529526453806,331.75518299888898,94.341329792317708,93.463333333333338,12.152333333333331,0.92324684309995297,12.876723634507925,8.81925229576090847E-002
20190902130000,405.50620513537592,13.596174451725746,0.28826266372093767,1,12.167503944417778,1,48.901385742176934,1,-1.4802312466576875,1,344.20093218863542,2.2527284533471690,6.1185816162703341,1.0769973095845118,0.70324576633555602,0.45596364957652974,0.50141136613502313,-867.55874060767667,-2.19005343507824683E-002,135.10333276846217,247.01198129871165,295.61025387424894,370.06895946174268,94.368034146742843,91.106666666666669,12.112000000000023,1.2527734154580754,12.793116119729120,9.30050828850100680E-002
20190902133000,404.27181180138609,13.445521691928027,0.26443039654236161,0,20.098348271097901,0,31.572745677197101,0,-4.5420095541735961,0,331.59253735625236,2.3928685605493496,5.7986946104210828,1.0599353276382082,0.68889557383716526,0.47968052625271762,0.48038513556028023,-461.89654386706212,-4.11347524727709718E-002,125.36170155280932,229.20117250257590,274.29526468931397,343.38512233083344,94.376642175130215,88.819999999999993,12.330333333333328,1.5976796120615222,12.985001022338906,0.14427020602742757
20190902140000,403.46838556520925,13.180583133870005,0.23166151855985825,0,36.477405921950783,0,48.343774184543349,0,-7.8894868662296629,0,342.57291347499523,2.1730724182578105,6.4113947903668222,0.93726274686592892,0.83491341192188773,0.54157946988166639,0.44971262891516778,-208.84232254495419,-9.09777279263410399E-002,107.91286242562448,197.29912955627091,236.11666717804582,295.59004868391605,94.412857624154427,85.763333333333335,12.566333333333318,2.0662787587314595,13.190478147847330,0.14736435920562116
20190902143000,404.70238338532704,13.096979829993872,0.29792515630920613,0,26.970429754115347,1,8.0454819502359278,2,-6.7312246426439319,0,334.73080031527866,3.1874638772577608,6.4133949818732319,1.1206255743065940,0.88173983927445965,0.55505096981357127,0.50942992911852492,-410.63418051477566,-4.62698939873475296E-002,116.91121452508220,213.75098707128649,255.80533876048005,320.23792916236158,94.432029332899305,88.436666666666667,12.005999999999972,1.6175497277569162,12.578278667159623,0.20850346443371931
20190902150000,403.99778604992628,13.021600986428743,0.27185805393954476,0,50.961864288683714,0,48.099415385655014,0,-8.3076604922900987,0,342.01699222770651,2.2967118022019473,6.4356510816612085,1.0922192058819711,0.75956229621781757,0.49834640549835912,0.48662858534401615,-189.43641643412585,-0.10029750539863604,122.85361180112045,224.61558452228971,268.80748705242337,336.51507593283054,94.441704322265622,87.753333333333330,12.037666666666667,1.7167179713140399,12.647857855902828,0.20426051374844192
20190902153000,402.85431918658753,12.856714203130084,0.27481620354215963,0,52.019143959219214,0,63.868707430627033,1,-9.0466683806804493,0,343.77352387031260,2.2776889681388712,6.0375190481200498,1.0267253346410652,0.84517655061251906,0.51563964002665008,0.48926246048648381,-188.62647530935999,-0.10072817174173845,120.06360482569242,219.51456194412145,262.70286584570113,328.87281458271917,94.452764185329855,86.403333333333336,12.081333333333362,1.9114506710446062,12.673387517293349,0.20774095476250751
20190902160000,401.94774876103702,12.697831046364778,0.19648660225323528,0,69.433161767238744,0,56.105442565947214,0,-11.174184381762913,0,341.52145049937121,2.3105126108030398,6.4728921092384244,1.0048755228943409,0.80226637374970045,0.47307561587156349,0.41395118742782466,-85.592860769427190,-0.22198113054291774,112.53037217831647,205.74141006339414,246.21992075654475,308.23812326851333,94.460643460720490,83.206666666666663,12.466666666666697,2.4214511239544549,13.028015706380245,0.26392253467587218
20190902163000,401.01679514111817,12.834697866293618,0.23066623075725645,1,102.76230665658692,0,64.843328702552256,0,-14.765564672809669,0,345.49904206880984,1.8250010815896938,5.5560468089321802,0.92497401541504554,0.75872885641735222,0.46357215827709436,0.44887038098152382,-73.739200480386828,-0.25766484958097186,122.02751950771707,223.10522434132460,266.99997166718089,334.25228115808522,94.460219321180560,81.713333333333338,12.906333333333350,2.7138928701238094,13.489879244486474,0.35021402602973417
20190902170000,401.27347535737522,12.926851453682019,0.14882636147574740,1,64.074399256525382,0,38.612604422719279,0,-9.4692754164753730,0,355.74775645777368,2.1351765765076292,5.4635410695554940,0.83113371194274444,0.93673167018224313,0.43411488294943668,0.36059989759398486,-61.321852168018324,-0.30984060866167412,107.94229285553457,197.35293776850077,236.18106186527578,295.67066319097643,94.474177775824643,81.738000000000000,13.013333333333321,2.7292711835359342,13.613563118828665,0.26984406971770608
20190902173000,400.21895614153578,12.813399600276041,0.11317061312412695,1,102.31493139768905,0,65.466568410047188,0,-13.304722596253935,0,344.07610645849917,1.6244929664188026,5.1948612677001034,0.77260047923843744,0.88390701978494879,0.42439393186735330,0.31476897764276923,-25.538453818510707,-0.74397612850894190,98.590054374549794,180.25406308178123,215.71807597880334,270.05343308735297,94.455607720269100,78.221999999999994,13.548999999999978,3.3705259389710909,14.166067671881819,0.39201314957770572
20190902180000,398.97210463263013,12.807958556527407,0.21129954252043948,1,112.70761608822365,0,93.900121778156574,0,-15.187040015708339,0,340.49257159013337,1.9055767139790589,5.3658161949150536,0.81988631942807777,0.71825268891410543,0.48873198000846196,0.43064538588306106,-59.361969780771005,-0.32007024143856205,113.16031095867132,206.89313906255225,247.59824621284616,309.96362318175409,94.437106667317707,74.867333333333335,14.214333333333343,4.0614889177479476,14.746846364339262,0.37320539170477551
20190902183000,399.23294078365797,12.459805990988679,0.14272610929797372,1,160.89105085976922,0,132.54882523421102,0,-14.622076801321947,0,339.99243815920920,1.4851446607066086,5.3160967222674511,0.90075514172556892,0.89758089942200225,0.51092161470628050,0.35421937179449298,-23.134596286392785,-0.82128081098935557,93.409129707297893,170.78168041887182,204.38205321158995,255.86207776419877,94.405812404932078,70.919666666666672,14.620666666666693,4.8245763974289098,15.073245281480865,0.55368432608422580
20190902190000,398.17091300196779,12.468057060584989,0.14204644434758684,0,177.40331976224007,0,143.29670883018383,0,-11.936479763829977,0,347.08017749564294,1.8891630348158732,6.7215183592016903,1.1562535859827239,1.0040449397575020,0.62026305394143300,0.35393575621868306,-20.926179259801216,-0.90795360988322560,79.934400241060544,146.14557741004666,174.89893005853122,218.95270617123549,94.373487529296867,67.319666666666663,15.435000000000002,5.7135993791611668,15.779360463460250,0.62104004252864542
20190902193000,397.27206736432703,12.263648196845347,0.19146159225141665,1,208.99492968102973,0,156.60259241232163,0,-15.455201752810497,0,323.77566456251355,1.3933098035076459,5.6373408013416517,0.88449306961604424,1.2786379394089273,0.54899684717842034,0.41126762347095025,-27.860832015214260,-0.68196096906310866,99.379918620069915,181.69818683687251,217.44632327929409,272.21699362628215,94.339812547743065,64.446333333333328,15.852333333333320,6.3843598086815296,16.246568616231343,0.56182419805650363
20190902200000,395.39200409978167,12.492188554876586,0.25144497372089347,1,220.96866202090493,0,207.42635500126622,0,-17.098935749341678,0,347.27275933861097,1.7339226784587656,6.3014706182693345,0.75809551203138736,0.81852634227057663,0.55496534612661708,0.47182803816359159,-39.784354238591469,-0.47757467385431862,109.96872852747086,201.05790847530938,240.61496553860363,301.22138444383268,94.313591386153391,63.438333333333333,16.384333333333302,6.7920912684968293,16.657504268730804,0.56904783935465864
20190902203000,395.54718493702632,12.071774712400490,0.10142562073549476,1,88.520211000388926,0,86.325153340257330,0,-8.9840313763372048,0,346.65620393953066,1.5492336930303445,4.7831758055329043,0.71642882313209921,0.62674774369143982,0.39409101418521525,0.29960851314507603,-25.421043538955164,-0.74741227561663359,100.55901097848971,183.85394372028398,220.02621368074702,275.44671026796937,94.287425538411455,61.848666666666666,16.240999999999985,7.0229691047069656,16.559429137335883,0.39975913427209736
20190902210000,394.56536566565734,12.017374142620339,8.42972055043616220E-002,1,99.803345714470041,0,138.57916432311777,0,-13.531697351033726,0,324.41399149847871,1.1945680508057988,3.7536514805168881,0.63830894774868441,0.50964957912186282,0.38457732874386275,0.27328879018304880,-17.109982834327017,-1.1104628323694823,95.272028343365534,174.18765326665010,208.45813281277725,260.96484573968411,94.274441406467020,60.475999999999999,16.520333333333326,7.4062413732152939,16.839014723036030,0.41505607742218176
20190902213000,393.54144701866477,12.174826133298620,0.10076818884306700,1,125.67766255601643,0,112.27011996736297,0,-12.031654602550619,0,11.158597151765946,0.95814470062309587,3.9361238034619759,0.67729761409552569,0.78118700468173441,0.44769569288379818,0.29898671317053621,-17.790997851736570,-1.0679558368978961,90.654648424202733,165.74561013662651,198.35516331403963,248.31712678923790,94.261988953932743,60.060333333333332,16.831666666666649,7.6336552786073870,17.123667923830340,0.42549764437818488
20190902220000,392.73434187013703,12.383797747675242,0.18300183436668965,1,77.186347741856750,0,167.36729450461672,0,-15.227625058080868,0,345.90146697236378,1.3866524224871704,4.2392458616375546,0.65518538445333030,0.70398030513772292,0.46446241482041406,0.40315141484546363,-71.016660520812351,-0.26754285347495049,111.80699874283265,204.41885271520542,244.63715739662283,306.25669135942383,94.254496825303832,59.979999999999997,17.120000000000005,7.7900999871772365,17.155617120530906,0.33677060982927914
20190902223000,392.67893462337963,12.223538734324043,0.11353733393766779,1,17.792497006719650,1,90.209750346401876,0,-8.3540500138267983,0,356.40455830676251,1.1996168438144403,4.2190412162266595,0.60705496082502819,0.55100108448265217,0.33769754681417774,0.31798709263908503,-151.18826325469712,-0.12567113075432268,119.33289283361822,218.17858737397293,261.10404549789968,326.87128123019596,94.264835109809027,56.109372570564872,17.972374527825252,9.0157014416041950,16.970412773132352,0.24309554081429152